SL-6 R/B(2)

Last updated on Tue Jul 08 2025 00:02:14 GMT+0000 (Coordinated Universal Time)

1 20666U 90055D 25188.63834724 .00001501 00000+0 12812-3 0 9993 2 20666 62.7839 6.1576 0023357 196.7370 163.2961 15.02099080901366
UTC large
Height (km)
Speed (km/s)
/
Latitude / Longitude
Inclination (degrees)
Orbital Period (minutes)
Azimuth
Elevation
Range (km)
Doppler Factor

Next 0 passes for location: London (51.5072 / 0.1276)

Sorry there are no passes over London.